Location: Bramevaque
(42.9773°N, 0.5757°E)
Time: 04:33:08
(UTC+00:00)

Cosmos 220 Rocket - Pass Details

Date: 15 May 2026
Orbit: 537 x 573 km, 74.0° (Epoch: 6 June)

Event Time Altitude Azimuth Distance (km) Brightness Sun altitude
Exits shadow 20:31:34 16° 161° (SSE) 1,484 5.5 -12.5°
Maximum altitude 20:34:18 34° 103° (ESE) 913 4.5 -12.9°
Drops below altitude 10° 20:38:00 10° 38° (NE) 1,838 6.6 -13.4°
Sets 20:40:20 0° 29° (NNE) 2,745 7.6 -13.7°
